• In Lithuania
  • List of Countries
  • For 7 days
  • Water Temperature
  • Satellite Maps
  • Weather Map
  • Weather Widgets
  • user-avatar
    Login

    Hourly Weather Potworow

    Today, 19 September, Wednesday

    Time Temperature Precipitation Wind Pressure Humidity
    00:00 +20°C° 0 mm 4 mps 750 mmHg 66%
    01:00 +19°C° 0 mm 4 mps 750 mmHg 66%
    02:00 +19°C° 0 mm 4 mps 750 mmHg 66%
    03:00 +18°C° 0 mm 4 mps 750 mmHg 66%
    04:00 +18°C° 0 mm 4 mps 750 mmHg 66%
    05:00 +18°C° 0 mm 4 mps 750 mmHg 65%
    06:00 +18°C° 0 mm 4 mps 750 mmHg 64%
    07:00 +19°C° 0 mm 4 mps 750 mmHg 63%
    08:00 +21°C° 0 mm 4 mps 751 mmHg 59%
    09:00 +23°C° 0 mm 4 mps 751 mmHg 55%
    10:00 +25°C° 0 mm 4 mps 751 mmHg 51%
    11:00 +27°C° 0 mm 4 mps 751 mmHg 49%
    12:00 +28°C° 0 mm 4 mps 751 mmHg 46%
    13:00 +29°C° 0 mm 4 mps 751 mmHg 44%
    14:00 +29°C° 0 mm 3 mps 751 mmHg 45%
    15:00 +29°C° 0 mm 3 mps 751 mmHg 46%
    16:00 +29°C° 0 mm 3 mps 751 mmHg 47%
    17:00 +27°C° 0 mm 2 mps 751 mmHg 52%
    18:00 +26°C° 0 mm 2 mps 751 mmHg 57%
    19:00 +24°C° 0 mm 1 mps 751 mmHg 62%
    20:00 +23°C° 0 mm 1 mps 751 mmHg 64%
    21:00 +23°C° 0 mm 1 mps 751 mmHg 65%
    22:00 +22°C° 0 mm 1 mps 752 mmHg 67%
    23:00 +22°C° 0 mm 1 mps 752 mmHg 69%

    Tomorrow, 20 September, Thursday

    Time Temperature Precipitation Wind Pressure Humidity
    00:00 +21°C° 0 mm 1 mps 752 mmHg 71%
    01:00 +21°C° 0 mm 1 mps 752 mmHg 73%
    02:00 +19°C° 0 mm 2 mps 752 mmHg 74%
    03:00 +19°C° 0 mm 2 mps 751 mmHg 76%
    04:00 +19°C° 0 mm 2 mps 751 mmHg 78%
    05:00 +19°C° 0 mm 2 mps 751 mmHg 77%
    06:00 +20°C° 0 mm 2 mps 752 mmHg 76%
    07:00 +20°C° 0 mm 2 mps 752 mmHg 75%
    08:00 +22°C° 0 mm 3 mps 752 mmHg 68%
    09:00 +25°C° 0 mm 3 mps 752 mmHg 61%
    10:00 +27°C° 0 mm 3 mps 752 mmHg 54%
    11:00 +28°C° 0 mm 3 mps 752 mmHg 50%
    12:00 +29°C° 0 mm 3 mps 752 mmHg 47%
    13:00 +30°C° 0 mm 3 mps 751 mmHg 44%
    14:00 +29°C° 0 mm 3 mps 751 mmHg 44%
    15:00 +29°C° 0 mm 3 mps 751 mmHg 45%
    16:00 +29°C° 0 mm 2 mps 751 mmHg 45%
    17:00 +27°C° 0 mm 2 mps 751 mmHg 49%
    18:00 +26°C° 0 mm 2 mps 751 mmHg 54%
    19:00 +24°C° 0 mm 2 mps 751 mmHg 58%
    20:00 +24°C° 0 mm 2 mps 751 mmHg 60%
    21:00 +23°C° 0 mm 2 mps 751 mmHg 61%
    22:00 +23°C° 0 mm 2 mps 751 mmHg 62%
    23:00 +21°C° 0 mm 2 mps 751 mmHg 62%

    Day after tomorrow, 21 September, Friday

    Time Temperature Precipitation Wind Pressure Humidity
    00:00 +21°C° 0 mm 2 mps 750 mmHg 63%
    01:00 +20°C° 0 mm 3 mps 750 mmHg 63%
    02:00 +20°C° 0 mm 3 mps 750 mmHg 64%
    03:00 +19°C° 0 mm 3 mps 750 mmHg 66%
    04:00 +19°C° 0 mm 3 mps 749 mmHg 67%
    05:00 +19°C° 0 mm 3 mps 749 mmHg 68%
    06:00 +20°C° 0 mm 3 mps 749 mmHg 68%
    07:00 +20°C° 0 mm 4 mps 749 mmHg 69%
    08:00 +22°C° 0 mm 4 mps 749 mmHg 63%
    09:00 +25°C° 0 mm 5 mps 749 mmHg 57%
    10:00 +27°C° 0 mm 5 mps 748 mmHg 51%
    11:00 +28°C° 0 mm 6 mps 748 mmHg 48%
    12:00 +29°C° 0 mm 6 mps 747 mmHg 44%
    13:00 +30°C° 0 mm 7 mps 747 mmHg 41%
    14:00 +29°C° 0 mm 6 mps 746 mmHg 41%
    15:00 +29°C° 0 mm 6 mps 746 mmHg 41%
    16:00 +29°C° 0 mm 5 mps 745 mmHg 41%
    17:00 +28°C° 0 mm 5 mps 745 mmHg 44%
    18:00 +26°C° 0 mm 6 mps 744 mmHg 47%
    19:00 +24°C° 0 mm 6 mps 744 mmHg 50%
    20:00 +24°C° 0 mm 6 mps 744 mmHg 50%
    21:00 +23°C° 0 mm 6 mps 744 mmHg 50%
    22:00 +23°C° 0 mm 6 mps 744 mmHg 50%
    23:00 +23°C° 0 mm 6 mps 744 mmHg 53%

    22 September, Saturday

    Time Temperature Precipitation Wind Pressure Humidity
    00:00 +22°C° 0 mm 6 mps 744 mmHg 55%
    01:00 +22°C° 0 mm 5 mps 744 mmHg 58%
    02:00 +20°C° 0.4 mm 6 mps 745 mmHg 64%
    03:00 +18°C° 0.4 mm 7 mps 746 mmHg 71%
    04:00 +16°C° 0.4 mm 7 mps 746 mmHg 78%
    05:00 +15°C° 1 mm 7 mps 747 mmHg 77%
    06:00 +14°C° 1 mm 6 mps 748 mmHg 77%
    07:00 +11°C° 1 mm 6 mps 749 mmHg 77%
    08:00 +13°C° 0.1 mm 6 mps 750 mmHg 70%
    09:00 +14°C° 0.1 mm 6 mps 751 mmHg 64%
    10:00 +14°C° 0.1 mm 6 mps 752 mmHg 57%
    11:00 +14°C° 0 mm 5 mps 752 mmHg 55%
    12:00 +14°C° 0 mm 5 mps 752 mmHg 52%
    13:00 +14°C° 0 mm 5 mps 752 mmHg 49%
    14:00 +15°C° 0 mm 5 mps 752 mmHg 49%
    15:00 +15°C° 0 mm 4 mps 752 mmHg 49%
    16:00 +15°C° 0 mm 4 mps 752 mmHg 48%
    17:00 +14°C° 0 mm 4 mps 752 mmHg 50%
    18:00 +14°C° 0 mm 4 mps 753 mmHg 52%
    19:00 +13°C° 0 mm 3 mps 753 mmHg 54%
    20:00 +12°C° 0 mm 3 mps 753 mmHg 56%
    21:00 +12°C° 0 mm 3 mps 753 mmHg 58%
    22:00 +11°C° 0 mm 3 mps 754 mmHg 60%
    23:00 +11°C° 0 mm 3 mps 754 mmHg 60%

    23 September, Sunday

    Time Temperature Precipitation Wind Pressure Humidity
    00:00 +11°C° 0 mm 3 mps 754 mmHg 61%
    01:00 +10°C° 0 mm 3 mps 754 mmHg 62%
    02:00 +10°C° 0 mm 3 mps 754 mmHg 64%
    03:00 +9°C° 0 mm 3 mps 754 mmHg 66%
    04:00 +9°C° 0 mm 3 mps 754 mmHg 68%
    05:00 +9°C° 0 mm 3 mps 754 mmHg 68%
    06:00 +9°C° 0 mm 3 mps 754 mmHg 69%
    07:00 +10°C° 0 mm 3 mps 754 mmHg 69%
    08:00 +11°C° 0 mm 3 mps 754 mmHg 63%
    09:00 +13°C° 0 mm 3 mps 754 mmHg 57%
    10:00 +14°C° 0 mm 3 mps 753 mmHg 51%
    11:00 +16°C° 0 mm 3 mps 753 mmHg 48%
    12:00 +17°C° 0 mm 3 mps 752 mmHg 44%
    13:00 +18°C° 0 mm 4 mps 752 mmHg 41%
    14:00 +18°C° 0 mm 4 mps 751 mmHg 42%
    15:00 +18°C° 0 mm 4 mps 750 mmHg 42%
    16:00 +18°C° 0 mm 4 mps 749 mmHg 43%
    17:00 +17°C° 0 mm 4 mps 748 mmHg 44%
    18:00 +15°C° 0 mm 4 mps 748 mmHg 46%
    19:00 +15°C° 0 mm 5 mps 747 mmHg 47%
    20:00 +14°C° 0.1 mm 6 mps 746 mmHg 48%
    21:00 +14°C° 0.1 mm 6 mps 746 mmHg 49%
    22:00 +14°C° 0.1 mm 7 mps 745 mmHg 50%
    23:00 +14°C° 0.3 mm 7 mps 744 mmHg 54%

    24 September, Monday

    Time Temperature Precipitation Wind Pressure Humidity
    00:00 +12°C° 0.3 mm 7 mps 743 mmHg 58%
    01:00 +12°C° 0.3 mm 7 mps 742 mmHg 62%
    02:00 +11°C° 1.3 mm 6 mps 742 mmHg 65%
    03:00 +12°C° 1.3 mm 5 mps 742 mmHg 67%
    04:00 +12°C° 1.3 mm 4 mps 741 mmHg 70%
    05:00 +12°C° 1 mm 4 mps 741 mmHg 73%
    06:00 +12°C° 1 mm 5 mps 740 mmHg 77%
    07:00 +12°C° 1 mm 5 mps 740 mmHg 80%
    08:00 +12°C° 0.4 mm 5 mps 740 mmHg 79%
    09:00 +13°C° 0.4 mm 6 mps 740 mmHg 78%
    10:00 +13°C° 0.4 mm 6 mps 740 mmHg 76%
    11:00 +12°C° 0.1 mm 7 mps 740 mmHg 74%
    12:00 +14°C° 0.1 mm 7 mps 739 mmHg 71%
    13:00 +14°C° 0.1 mm 7 mps 739 mmHg 69%
    14:00 +14°C° 0 mm 6 mps 739 mmHg 68%
    15:00 +14°C° 0 mm 6 mps 739 mmHg 67%
    16:00 +14°C° 0 mm 6 mps 739 mmHg 65%
    17:00 +14°C° 0 mm 6 mps 739 mmHg 68%
    18:00 +13°C° 0 mm 6 mps 739 mmHg 70%
    19:00 +13°C° 0 mm 6 mps 739 mmHg 73%
    20:00 +12°C° 0.1 mm 7 mps 739 mmHg 75%
    21:00 +11°C° 0.1 mm 7 mps 740 mmHg 78%
    22:00 +11°C° 0.1 mm 8 mps 740 mmHg 80%
    23:00 +11°C° 0.1 mm 8 mps 741 mmHg 80%
    Show more